TimeCST,TemperatureF,Dew PointF,Humidity,Sea Level PressureIn,VisibilityMPH,Wind Direction,Wind SpeedMPH,Gust SpeedMPH,PrecipitationIn,Events,Conditions,WindDirDegrees,DateUTC
12:53 AM,36.0,27.0,70,30.12,10.0,West,5.8,-,N/A,,Clear,260,2013-01-31 06:53:00
1:53 AM,35.1,26.1,70,30.12,10.0,SW,6.9,-,N/A,,Clear,220,2013-01-31 07:53:00
2:53 AM,35.1,26.1,70,30.12,10.0,SSW,8.1,-,N/A,,Clear,210,2013-01-31 08:53:00
3:53 AM,34.0,28.0,79,30.14,10.0,SSW,6.9,-,N/A,,Clear,210,2013-01-31 09:53:00
4:53 AM,33.1,28.0,82,30.14,10.0,SSW,6.9,-,N/A,,Clear,200,2013-01-31 10:53:00
5:53 AM,32.0,26.1,79,30.15,10.0,SW,5.8,-,N/A,,Clear,220,2013-01-31 11:53:00
6:53 AM,32.0,26.1,79,30.16,10.0,SW,6.9,-,N/A,,Clear,230,2013-01-31 12:53:00
7:53 AM,35.1,27.0,72,30.17,10.0,SW,6.9,-,N/A,,Clear,230,2013-01-31 13:53:00
8:53 AM,42.1,27.0,55,30.19,10.0,SW,10.4,-,N/A,,Clear,230,2013-01-31 14:53:00
9:53 AM,48.0,28.0,46,30.20,10.0,SW,11.5,-,N/A,,Clear,230,2013-01-31 15:53:00
10:53 AM,52.0,25.0,35,30.21,10.0,SW,9.2,-,N/A,,Clear,220,2013-01-31 16:53:00
11:53 AM,55.0,26.1,33,30.21,10.0,SW,10.4,-,N/A,,Clear,220,2013-01-31 17:53:00
12:53 PM,59.0,24.1,26,30.17,10.0,SW,12.7,-,N/A,,Clear,230,2013-01-31 18:53:00
1:53 PM,61.0,21.9,22,30.14,10.0,WSW,17.3,-,N/A,,Clear,240,2013-01-31 19:53:00
2:53 PM,62.1,21.9,21,30.13,10.0,WSW,13.8,-,N/A,,Clear,250,2013-01-31 20:53:00
3:53 PM,62.1,21.9,21,30.12,10.0,WSW,16.1,21.9,N/A,,Clear,240,2013-01-31 21:53:00
4:53 PM,61.0,21.9,22,30.12,10.0,SW,13.8,20.7,N/A,,Clear,230,2013-01-31 22:53:00
5:53 PM,55.9,24.1,29,30.13,10.0,SSW,6.9,-,N/A,,Clear,210,2013-01-31 23:53:00
6:53 PM,53.1,25.0,34,30.17,10.0,SSW,3.5,-,N/A,,Clear,210,2013-02-01 00:53:00
7:53 PM,52.0,25.0,35,30.20,10.0,SSW,4.6,-,N/A,,Clear,210,2013-02-01 01:53:00
8:53 PM,50.0,26.1,39,30.22,10.0,SSW,5.8,-,N/A,,Clear,210,2013-02-01 02:53:00
9:53 PM,48.9,28.0,44,30.27,10.0,North,5.8,-,N/A,,Clear,10,2013-02-01 03:53:00
10:53 PM,45.0,30.0,56,30.30,10.0,NE,4.6,-,N/A,,Clear,40,2013-02-01 04:53:00
11:53 PM,44.1,28.9,55,30.32,10.0,NNE,6.9,-,N/A,,Clear,30,2013-02-01 05:53:00